Manitowoc, WI

4:13 PM CST on November 16, 2019 (GMT -0600)
Manitowoc County

Weather History for KMTW - October, 2019

Change the Weather History Date:

Wednesday, October 23, 2019

  Actual Average Record
Temperature  
Mean Temperature 47 °F -  
Max Temperature 52 °F 56 °F 77 °F (1963)
Min Temperature 42 °F 39 °F 19 °F (1969)
Degree Days  
Heating Degree Days 18    
Moisture  
Dew Point 36 °F    
Average Humidity 68    
Maximum Humidity 82    
Minimum Humidity 53    
Precipitation  
Precipitation 0.00 in - - ()
Sea Level Pressure  
Sea Level Pressure 29.83 in    
Wind  
Wind Speed 14 mph (West)    
Max Wind Speed 20 mph    
Max Gust Speed 28 mph    
Visibility 10 miles    
Events Rain    
Averages and records for this station are not official NWS values.
T = Trace of Precipitation, MM = Missing Value Source: NWS Daily Summary

Daily Weather History Graph

Daily Weather History Graph

Search for Another Location

Airport or City:

Astronomy

Oct. 23, 2019 Rise Set
Actual Time 7:15 AM CDT 5:54 PM CDT
Civil Twilight 6:45 AM CDT 6:23 PM CDT
Nautical Twilight 6:12 AM CDT 6:57 PM CDT
Astronomical Twilight 5:38 AM CDT 7:30 PM CDT
Moon 1:17 AM CDT (10/23) 3:58 PM CDT (10/23)
Length of Visible Light 11h 37m
Length of Day
10h 38m
Waning Crescent, 26% of the Moon is Illuminated
Oct 23
Waning Crescent
Oct 27
New
Nov 4
First Quarter
Nov 12
Full
Nov 19
Last Quarter

Hourly Weather History & Observations

Time (CDT) Temp. Windchill Dew Point Humidity Pressure Visibility Wind Dir Wind Speed Gust Speed Precip Events Conditions
12:53 AM 44.6 °F 37.8 °F 37.4 °F 76% 29.62 in 10.0 mi West 15.0 mph 23.0 mph 0.00 in   Overcast
12:56 AM 44.1 °F 37.1 °F 37.0 °F 76% 29.63 in 10.0 mi WSW 15.0 mph 23.0 mph 0.00 in   Overcast
1:23 AM 42.8 °F 34.5 °F 37.4 °F 81% 29.63 in 10.0 mi West 18.4 mph 27.6 mph 0.00 in Rain Light Rain
1:56 AM 42.1 °F 34.5 °F 37.0 °F 82% 29.65 in 10.0 mi West 15.0 mph 23.0 mph 0.00 in Rain Light Rain
2:56 AM 43.0 °F 35.4 °F 37.0 °F 80% 29.67 in 10.0 mi WSW 16.1 mph 21.9 mph N/A   Mostly Cloudy
3:56 AM 44.1 °F 37.1 °F 37.0 °F 76% 29.68 in 10.0 mi WSW 15.0 mph 21.9 mph 0.00 in   Overcast
4:56 AM 45.0 °F 38.9 °F 36.0 °F 71% 29.70 in 10.0 mi WSW 12.7 mph - 0.00 in   Overcast
5:56 AM 44.1 °F 39.0 °F 36.0 °F 73% 29.73 in 10.0 mi West 9.2 mph - 0.00 in Rain Light Rain
6:56 AM 44.1 °F 38.1 °F 35.1 °F 71% 29.75 in 10.0 mi WSW 11.5 mph - 0.00 in   Overcast
7:56 AM 43.0 °F 35.7 °F 34.0 °F 71% 29.77 in 10.0 mi WSW 15.0 mph 20.7 mph N/A   Overcast
8:56 AM 43.0 °F 35.1 °F 34.0 °F 71% 29.80 in 10.0 mi WSW 17.3 mph 21.9 mph N/A   Overcast
9:56 AM 44.1 °F 36.8 °F 34.0 °F 68% 29.83 in 10.0 mi WSW 16.1 mph 21.9 mph N/A   Clear
10:56 AM 46.0 °F 39.6 °F 34.0 °F 63% 29.86 in 10.0 mi WSW 15.0 mph 24.2 mph N/A   Partly Cloudy
11:35 AM 46.4 °F 39.8 °F 33.8 °F 62% 29.85 in 10.0 mi WSW 16.1 mph - N/A   Mostly Cloudy
11:46 AM 46.4 °F 39.0 °F 33.8 °F 62% 29.85 in 10.0 mi WSW 19.6 mph - N/A   Scattered Clouds
11:56 AM 46.9 °F - 34.0 °F 61% 29.86 in 10.0 mi WSW 17.3 mph 24.2 mph N/A   Mostly Cloudy
12:05 PM 46.4 °F 39.0 °F 33.8 °F 62% 29.85 in 10.0 mi West 19.6 mph 25.3 mph N/A   Scattered Clouds
12:17 PM 46.4 °F 40.1 °F 35.6 °F 66% 29.86 in 10.0 mi West 15.0 mph 24.2 mph N/A   Mostly Cloudy
12:26 PM 48.2 °F - 35.6 °F 62% 29.85 in 10.0 mi West 18.4 mph 23.0 mph N/A   Scattered Clouds
12:56 PM 48.0 °F - 35.1 °F 61% 29.88 in 10.0 mi West 16.1 mph 23.0 mph N/A   Partly Cloudy
1:56 PM 50.0 °F - 35.1 °F 57% 29.87 in 10.0 mi West 17.3 mph - N/A   Scattered Clouds
2:56 PM 51.1 °F - 35.1 °F 54% 29.87 in 10.0 mi WSW 11.5 mph - N/A   Clear
3:56 PM 52.0 °F - 35.1 °F 53% 29.88 in 10.0 mi West 12.7 mph - N/A   Clear
4:56 PM 51.1 °F - 35.1 °F 54% 29.90 in 10.0 mi WSW 9.2 mph - N/A   Clear
5:56 PM 48.9 °F - 35.1 °F 59% 29.92 in 10.0 mi Calm Calm - N/A   Mostly Cloudy
6:56 PM 46.9 °F - 37.0 °F 68% 29.95 in 10.0 mi Calm Calm - N/A   Overcast
7:56 PM 46.9 °F - 37.0 °F 68% 29.98 in 10.0 mi Calm Calm - N/A   Mostly Cloudy
8:56 PM 46.9 °F - 37.0 °F 68% 30.01 in 10.0 mi WNW 10.4 mph - 0.00 in Rain Light Rain
9:56 PM 44.1 °F 40.8 °F 39.0 °F 82% 30.01 in 10.0 mi NW 5.8 mph - 0.00 in Rain Light Rain
10:56 PM 43.0 °F 39.5 °F 37.9 °F 82% 30.01 in 10.0 mi NW 5.8 mph - 0.00 in Rain Light Rain
11:56 PM 43.0 °F 39.5 °F 37.9 °F 82% 30.03 in 10.0 mi West 5.8 mph - 0.00 in   Overcast